N2193G KRDG-KRDG

Flight info

Callsign N2193G
Flight time 0h 45m
Altitude 2500
Route KRDG
Aircraft EC45/L-SDE3L/L

Departure

Time 2026-05-08 14:22
Airport Reading Regional Airport (Carl A Spaatz Field) (KRDG)

Arrival

Time 2026-05-08 15:07
Airport Reading Regional Airport (Carl A Spaatz Field) (KRDG)
Time Latitude Longitude Altitude Speed Heading
2026-05-08 14:18 40.21351 -76.14870 406 ft 0 kts 360°
2026-05-08 14:20 40.21350 -76.14867 416 ft 1 kts
2026-05-08 14:20 40.21364 -76.14864 422 ft 4 kts 211°
2026-05-08 14:20 40.21313 -76.14919 525 ft 22 kts 198°
2026-05-08 14:21 40.21089 -76.15022 683 ft 51 kts 189°
2026-05-08 14:21 40.20622 -76.15091 737 ft 80 kts 201°
2026-05-08 14:21 40.20035 -76.15283 767 ft 94 kts 199°
2026-05-08 14:21 40.19429 -76.15681 835 ft 98 kts 212°
2026-05-08 14:22 40.18826 -76.16133 951 ft 100 kts 213°
2026-05-08 14:22 40.18217 -76.16606 1005 ft 104 kts 212°
2026-05-08 14:22 40.17577 -76.16999 1015 ft 101 kts 191°
2026-05-08 14:22 40.17033 -76.16459 991 ft 117 kts 107°
2026-05-08 14:23 40.16614 -76.15603 1000 ft 116 kts 158°
2026-05-08 14:23 40.15898 -76.15644 1030 ft 96 kts 214°
2026-05-08 14:23 40.15542 -76.16300 1012 ft 93 kts 255°
2026-05-08 14:23 40.15246 -76.17040 1018 ft 93 kts 223°
2026-05-08 14:24 40.14646 -76.17405 1020 ft 95 kts 199°
2026-05-08 14:24 40.14015 -76.17651 1017 ft 95 kts 198°
2026-05-08 14:24 40.13381 -76.17892 1018 ft 95 kts 199°
2026-05-08 14:24 40.12743 -76.18130 1027 ft 92 kts 199°
2026-05-08 14:25 40.12138 -76.18357 1020 ft 91 kts 202°
2026-05-08 14:25 40.11513 -76.18596 1017 ft 97 kts 200°
2026-05-08 14:25 40.10866 -76.18843 1015 ft 96 kts 199°
2026-05-08 14:25 40.10238 -76.19080 1019 ft 94 kts 199°
2026-05-08 14:26 40.09600 -76.19323 1022 ft 96 kts 198°
2026-05-08 14:26 40.08955 -76.19568 1028 ft 94 kts 200°
2026-05-08 14:26 40.08333 -76.19799 1019 ft 92 kts 201°
2026-05-08 14:26 40.07711 -76.20033 1021 ft 92 kts 202°
2026-05-08 14:27 40.07060 -76.20284 1025 ft 99 kts 198°
2026-05-08 14:27 40.06398 -76.20534 1020 ft 100 kts 200°
2026-05-08 14:27 40.05733 -76.20786 1017 ft 100 kts 201°
2026-05-08 14:27 40.05068 -76.21038 1020 ft 100 kts 200°
2026-05-08 14:28 40.04400 -76.21290 1028 ft 99 kts 200°
2026-05-08 14:28 40.03740 -76.21539 1023 ft 100 kts 199°
2026-05-08 14:28 40.03082 -76.21778 853 ft 92 kts 197°
2026-05-08 14:28 40.02539 -76.21930 823 ft 74 kts 195°
2026-05-08 14:29 40.02031 -76.22052 807 ft 74 kts 195°
2026-05-08 14:29 40.01523 -76.22204 807 ft 77 kts 196°
2026-05-08 14:29 40.01005 -76.22356 854 ft 77 kts 199°
2026-05-08 14:29 40.00450 -76.22538 833 ft 87 kts 196°
2026-05-08 14:30 39.99869 -76.22661 778 ft 74 kts 190°
2026-05-08 14:30 39.99451 -76.22680 746 ft 51 kts 193°
2026-05-08 14:30 39.99128 -76.22742 672 ft 45 kts 209°
2026-05-08 14:30 39.98910 -76.22930 565 ft 24 kts 236°
2026-05-08 14:31 39.98877 -76.23093 540 ft 19 kts 253°
2026-05-08 14:31 39.98867 -76.23241 493 ft 14 kts 252°
2026-05-08 14:31 39.98845 -76.23354 435 ft 8 kts 252°
2026-05-08 14:32 39.98835 -76.23401 405 ft 0 kts 252°
2026-05-08 14:53 39.98838 -76.23446 449 ft 16 kts 253°
2026-05-08 14:53 39.99049 -76.23437 580 ft 60 kts 50°
2026-05-08 14:53 39.99421 -76.23034 774 ft 82 kts 31°
2026-05-08 14:54 39.99913 -76.22538 849 ft 95 kts 33°
2026-05-08 14:54 40.00473 -76.21986 856 ft 102 kts 34°
2026-05-08 14:54 40.01050 -76.21481 1020 ft 102 kts 28°
2026-05-08 14:54 40.01651 -76.20992 1132 ft 100 kts 27°
2026-05-08 14:55 40.02238 -76.20521 1179 ft 96 kts 25°
2026-05-08 14:55 40.02813 -76.20059 1199 ft 96 kts 30°
2026-05-08 14:55 40.03392 -76.19591 1203 ft 99 kts 26°
2026-05-08 14:55 40.03969 -76.19121 1204 ft 98 kts 27°
2026-05-08 14:56 40.04540 -76.18654 1213 ft 97 kts 27°
2026-05-08 14:56 40.05111 -76.18185 1201 ft 101 kts 31°
2026-05-08 14:56 40.05725 -76.17673 1238 ft 104 kts 28°
2026-05-08 14:56 40.06364 -76.17146 1229 ft 108 kts 29°
2026-05-08 14:57 40.07007 -76.16615 1224 ft 111 kts 28°
2026-05-08 14:57 40.07650 -76.16089 1208 ft 114 kts 28°
2026-05-08 14:57 40.08318 -76.15538 1224 ft 114 kts 30°
2026-05-08 14:57 40.09005 -76.14969 1216 ft 123 kts 29°
2026-05-08 14:58 40.09735 -76.14364 1218 ft 126 kts 29°
2026-05-08 14:58 40.10441 -76.13783 1207 ft 120 kts 31°
2026-05-08 14:58 40.11142 -76.13201 1216 ft 117 kts 31°
2026-05-08 14:58 40.11834 -76.12629 1221 ft 118 kts 31°
2026-05-08 14:59 40.12445 -76.12127 1234 ft 83 kts 29°
2026-05-08 14:59 40.13458 -76.11273 1270 ft 98 kts 27°
2026-05-08 14:59 40.14071 -76.10758 1246 ft 106 kts 29°
2026-05-08 15:00 40.14728 -76.10212 1225 ft 117 kts 29°
2026-05-08 15:00 40.15396 -76.09657 1223 ft 110 kts 28°
2026-05-08 15:00 40.16063 -76.09101 1210 ft 119 kts 30°
2026-05-08 15:00 40.16748 -76.08532 1221 ft 116 kts 27°
2026-05-08 15:01 40.17432 -76.07966 1218 ft 119 kts 28°
2026-05-08 15:01 40.18117 -76.07400 1216 ft 115 kts 31°
2026-05-08 15:01 40.18565 -76.07026 1211 ft 114 kts 29°
2026-05-08 15:01 40.19232 -76.06470 1207 ft 115 kts 28°
2026-05-08 15:02 40.19898 -76.05913 1207 ft 113 kts 28°
2026-05-08 15:02 40.20564 -76.05360 1209 ft 112 kts 30°
2026-05-08 15:02 40.21223 -76.04810 1213 ft 112 kts 31°
2026-05-08 15:02 40.21889 -76.04252 1216 ft 114 kts 28°
2026-05-08 15:03 40.22551 -76.03700 1216 ft 115 kts 28°
2026-05-08 15:03 40.23219 -76.03145 1225 ft 111 kts 25°
2026-05-08 15:03 40.23877 -76.02599 1220 ft 113 kts 29°
2026-05-08 15:03 40.24542 -76.02043 1217 ft 115 kts 28°
2026-05-08 15:04 40.25213 -76.01480 1218 ft 116 kts 27°
2026-05-08 15:04 40.25883 -76.00921 1217 ft 112 kts 27°
2026-05-08 15:04 40.26551 -76.00361 1229 ft 110 kts 28°
2026-05-08 15:04 40.27202 -75.99821 1216 ft 115 kts 30°
2026-05-08 15:05 40.27875 -75.99258 1227 ft 114 kts 28°
2026-05-08 15:05 40.28554 -75.98689 1231 ft 114 kts 27°
2026-05-08 15:05 40.29232 -75.98130 1159 ft 119 kts 28°
2026-05-08 15:05 40.29949 -75.97545 963 ft 120 kts 28°
2026-05-08 15:06 40.30605 -75.97030 905 ft 101 kts 28°
2026-05-08 15:06 40.31192 -75.96549 805 ft 96 kts 25°
2026-05-08 15:06 40.31749 -75.96104 742 ft 91 kts 28°
2026-05-08 15:06 40.32164 -75.95584 711 ft 77 kts 67°
2026-05-08 15:07 40.32350 -75.94975 688 ft 70 kts 70°
2026-05-08 15:07 40.32520 -75.94357 659 ft 70 kts 60°
2026-05-08 15:07 40.32857 -75.94293 625 ft 57 kts 329°
2026-05-08 15:07 40.32977 -75.94583 517 ft 32 kts 265°
2026-05-08 15:08 40.32986 -75.94849 449 ft 27 kts 264°
2026-05-08 15:08 40.32997 -75.95098 361 ft 16 kts 271°
2026-05-08 15:08 40.32997 -75.95160 315 ft 0 kts 273°
2026-05-08 15:26 40.33000 -75.95163 327 ft 2 kts 268°
2026-05-08 15:27 40.32976 -75.95286 432 ft 32 kts 253°
2026-05-08 15:27 40.33122 -75.95727 514 ft 74 kts 309°
2026-05-08 15:27 40.33646 -75.96070 648 ft 94 kts 328°
2026-05-08 15:27 40.34324 -75.96372 737 ft 109 kts 336°
2026-05-08 15:28 40.35116 -75.96356 795 ft 120 kts
2026-05-08 15:28 40.35931 -75.96115 782 ft 118 kts 14°
2026-05-08 15:28 40.36705 -75.95823 837 ft 115 kts 12°
2026-05-08 15:28 40.37462 -75.95575 1069 ft 106 kts
2026-05-08 15:29 40.38166 -75.95392 1157 ft 101 kts
2026-05-08 15:29 40.38860 -75.95248 1193 ft 99 kts
2026-05-08 15:29 40.39534 -75.95133 1203 ft 99 kts 355°
2026-05-08 15:29 40.40228 -75.95036 1217 ft 101 kts 356°
2026-05-08 15:30 40.40948 -75.94949 1218 ft 104 kts 355°
2026-05-08 15:30 40.41632 -75.94877 1219 ft 97 kts
2026-05-08 15:30 40.42341 -75.94811 1216 ft 105 kts 356°
2026-05-08 15:30 40.43040 -75.94749 1219 ft 97 kts 359°
2026-05-08 15:31 40.43730 -75.94696 1219 ft 102 kts 352°
2026-05-08 15:31 40.44430 -75.94648 1219 ft 100 kts 355°
2026-05-08 15:31 40.45127 -75.94603 1223 ft 102 kts 358°
2026-05-08 15:31 40.45828 -75.94558 1215 ft 100 kts 352°
2026-05-08 15:32 40.46514 -75.94517 1217 ft 99 kts 348°
2026-05-08 15:32 40.47234 -75.94476 1218 ft 104 kts 353°
2026-05-08 15:32 40.47946 -75.94435 1276 ft 101 kts 353°
2026-05-08 15:32 40.48570 -75.94304 1104 ft 78 kts 24°
2026-05-08 15:33 40.48917 -75.93872 989 ft 63 kts 46°
2026-05-08 15:33 40.49205 -75.93453 1005 ft 62 kts 48°
2026-05-08 15:33 40.49471 -75.92986 1019 ft 66 kts 54°
2026-05-08 15:33 40.49731 -75.92495 945 ft 65 kts 54°
2026-05-08 15:34 40.50018 -75.92070 983 ft 63 kts 18°
2026-05-08 15:34 40.50445 -75.91959 970 ft 63 kts 356°
2026-05-08 15:34 40.50863 -75.91962 875 ft 55 kts 333°
2026-05-08 15:34 40.51100 -75.92290 822 ft 45 kts 272°
2026-05-08 15:35 40.51042 -75.92687 819 ft 47 kts 255°
2026-05-08 15:35 40.50950 -75.93118 722 ft 44 kts 252°
2026-05-08 15:35 40.50876 -75.93449 674 ft 36 kts 250°
2026-05-08 15:35 40.50798 -75.93761 677 ft 23 kts 249°
2026-05-08 15:36 40.50790 -75.93813 685 ft 1 kts 251°
2026-05-08 15:36 40.50792 -75.93817 666 ft 1 kts 252°
2026-05-08 15:36 40.50787 -75.93839 666 ft 1 kts 251°
2026-05-08 15:36 40.50782 -75.93867 666 ft 12 kts 250°
2026-05-08 15:37 40.50752 -75.93968 679 ft 12 kts 251°
2026-05-08 15:37 40.50719 -75.94073 688 ft 12 kts 250°
2026-05-08 15:37 40.50690 -75.94151 692 ft 5 kts 251°
2026-05-08 15:37 40.50685 -75.94163 682 ft 0 kts 250°
2026-05-08 15:38 40.50684 -75.94162 672 ft 0 kts 250°
2026-05-08 15:38 40.50685 -75.94162 654 ft 0 kts 250°
2026-05-08 15:38 40.50684 -75.94162 606 ft 0 kts 250°
2026-05-08 15:39 40.50685 -75.94163 587 ft 0 kts 250°
2026-05-08 15:40 40.50685 -75.94164 569 ft 0 kts 250°
2026-05-08 15:40 40.50686 -75.94164 569 ft 0 kts 250°
2026-05-08 15:41 40.50685 -75.94163 572 ft 1 kts 250°
2026-05-08 15:41 40.50720 -75.94043 601 ft 30 kts 251°
2026-05-08 15:41 40.50765 -75.93909 536 ft 2 kts 251°
2026-05-08 15:41 40.50754 -75.93932 524 ft 3 kts 251°
2026-05-08 15:42 40.50751 -75.93939 498 ft 2 kts 251°
2026-05-08 15:42 40.50750 -75.93944 492 ft 0 kts 250°
2026-05-08 16:05 40.50750 -75.93945 491 ft 1 kts 251°
2026-05-08 16:05 40.50746 -75.93967 495 ft 3 kts 250°
2026-05-08 16:05 40.50740 -75.94007 485 ft 6 kts 251°
2026-05-08 16:06 40.50731 -75.94052 496 ft 5 kts 249°
2026-05-08 16:06 40.50724 -75.94104 495 ft 4 kts 248°
2026-05-08 16:06 40.50714 -75.94145 487 ft 4 kts 241°
2026-05-08 16:06 40.50705 -75.94170 481 ft 4 kts 224°
2026-05-08 16:07 40.50703 -75.94172 482 ft 0 kts 223°
2026-05-08 16:20 40.50702 -75.94174 502 ft 2 kts 225°
2026-05-08 16:20 40.50568 -75.94219 557 ft 42 kts 213°
2026-05-08 16:20 40.50351 -75.94679 610 ft 77 kts 255°
2026-05-08 16:20 40.50690 -75.95227 647 ft 98 kts 344°
2026-05-08 16:21 40.51381 -75.95064 827 ft 104 kts
2026-05-08 16:21 40.52095 -75.94858 937 ft 107 kts 356°
2026-05-08 16:21 40.52814 -75.94905 1056 ft 101 kts 342°
2026-05-08 16:21 40.53518 -75.95014 1140 ft 101 kts 345°
2026-05-08 16:22 40.54203 -75.95064 1170 ft 100 kts 354°
2026-05-08 16:22 40.54902 -75.94971 1181 ft 103 kts 359°
2026-05-08 16:22 40.55618 -75.94880 1195 ft 101 kts 360°
2026-05-08 16:22 40.56291 -75.94821 1204 ft 92 kts 353°
2026-05-08 16:23 40.56923 -75.94778 1353 ft 89 kts 349°
2026-05-08 16:23 40.57523 -75.94750 1440 ft 86 kts 348°
2026-05-08 16:23 40.58119 -75.94741 1489 ft 82 kts 345°
2026-05-08 16:23 40.58638 -75.94737 1532 ft 73 kts 346°
2026-05-08 16:24 40.59176 -75.94741 1588 ft 81 kts 349°
2026-05-08 16:24 40.59744 -75.94746 1627 ft 83 kts 351°
2026-05-08 16:24 40.60337 -75.94751 1681 ft 87 kts 345°
2026-05-08 16:24 40.60927 -75.94760 1746 ft 80 kts 346°
2026-05-08 16:25 40.61472 -75.94774 1885 ft 79 kts 345°
2026-05-08 16:25 40.62024 -75.94791 1982 ft 79 kts 343°
2026-05-08 16:25 40.62566 -75.94812 2015 ft 78 kts 343°
2026-05-08 16:25 40.63121 -75.94835 2035 ft 81 kts 343°
2026-05-08 16:26 40.63676 -75.94859 2051 ft 77 kts 341°
2026-05-08 16:26 40.64210 -75.94885 2046 ft 80 kts 343°
2026-05-08 16:26 40.64781 -75.94913 2043 ft 85 kts 346°
2026-05-08 16:26 40.65405 -75.94943 2047 ft 96 kts 344°
2026-05-08 16:27 40.66058 -75.94973 2056 ft 92 kts 342°
2026-05-08 16:27 40.66697 -75.95007 2044 ft 94 kts 343°
2026-05-08 16:27 40.67369 -75.95042 2043 ft 100 kts 344°
2026-05-08 16:27 40.68072 -75.95076 2052 ft 101 kts 347°
2026-05-08 16:28 40.68780 -75.95113 2041 ft 107 kts 348°
2026-05-08 16:28 40.69537 -75.95151 2056 ft 106 kts 343°
2026-05-08 16:28 40.70275 -75.95190 2055 ft 107 kts 348°
2026-05-08 16:28 40.71013 -75.95231 2056 ft 105 kts 348°
2026-05-08 16:29 40.71757 -75.95271 2052 ft 107 kts 347°
2026-05-08 16:29 40.72490 -75.95307 2047 ft 106 kts 345°
2026-05-08 16:29 40.73224 -75.95341 2048 ft 105 kts 343°
2026-05-08 16:29 40.73956 -75.95377 2055 ft 105 kts 346°
2026-05-08 16:30 40.74688 -75.95418 2044 ft 107 kts 348°
2026-05-08 16:30 40.75430 -75.95457 2049 ft 105 kts 347°
2026-05-08 16:30 40.76150 -75.95494 2043 ft 103 kts 343°
2026-05-08 16:30 40.76866 -75.95531 2051 ft 103 kts 347°
2026-05-08 16:31 40.77597 -75.95574 2059 ft 105 kts 346°
2026-05-08 16:31 40.78330 -75.95618 2037 ft 108 kts 350°
2026-05-08 16:31 40.79071 -75.95653 2043 ft 106 kts 349°
2026-05-08 16:31 40.79797 -75.95686 2056 ft 105 kts 345°
2026-05-08 16:32 40.80538 -75.95724 2053 ft 108 kts 350°
2026-05-08 16:32 40.81281 -75.95758 2052 ft 106 kts 348°
2026-05-08 16:32 40.82028 -75.95788 2067 ft 106 kts 349°
2026-05-08 16:32 40.82749 -75.95827 2061 ft 104 kts 351°
2026-05-08 16:33 40.83494 -75.95863 2063 ft 108 kts 351°
2026-05-08 16:33 40.84233 -75.95899 2065 ft 104 kts 347°
2026-05-08 16:33 40.84967 -75.95938 2064 ft 108 kts 351°
2026-05-08 16:33 40.85673 -75.95974 2058 ft 98 kts 353°
2026-05-08 16:34 40.86377 -75.96005 2069 ft 100 kts 348°
2026-05-08 16:34 40.87065 -75.96042 2071 ft 99 kts 352°
2026-05-08 16:34 40.87750 -75.96080 2066 ft 100 kts 354°
2026-05-08 16:34 40.88459 -75.96118 2065 ft 102 kts 348°
2026-05-08 16:35 40.89163 -75.96158 2067 ft 101 kts 351°
2026-05-08 16:35 40.89874 -75.96196 2067 ft 103 kts 351°
2026-05-08 16:35 40.90583 -75.96236 2062 ft 103 kts 350°
2026-05-08 16:35 40.91299 -75.96274 2074 ft 103 kts 352°
2026-05-08 16:36 40.92023 -75.96315 2202 ft 105 kts 349°
2026-05-08 16:36 40.92775 -75.96340 2194 ft 107 kts 359°
2026-05-08 16:36 40.93537 -75.96291 2205 ft 113 kts 353°
2026-05-08 16:36 40.94296 -75.96406 2146 ft 108 kts 343°
2026-05-08 16:37 40.94949 -75.96459 2044 ft 75 kts 342°
2026-05-08 16:37 40.95375 -75.96623 1987 ft 60 kts 344°
2026-05-08 16:37 40.95715 -75.96360 2094 ft 66 kts 64°
2026-05-08 16:37 40.95543 -75.95944 2093 ft 51 kts 176°
2026-05-08 16:38 40.95224 -75.95908 2116 ft 41 kts 199°
2026-05-08 16:38 40.95034 -75.96081 2129 ft 30 kts 236°
2026-05-08 16:38 40.94829 -75.96158 2094 ft 43 kts 173°
2026-05-08 16:38 40.94611 -75.95895 2027 ft 42 kts 119°
2026-05-08 16:39 40.94733 -75.95674 1970 ft 34 kts 324°
2026-05-08 16:39 40.94889 -75.95962 1874 ft 37 kts 301°
2026-05-08 16:39 40.94962 -75.96145 1819 ft 30 kts 274°
2026-05-08 16:39 40.94969 -75.96377 1704 ft 7 kts 280°
2026-05-08 16:40 40.94971 -75.96409 1690 ft 3 kts 267°
2026-05-08 16:40 40.94976 -75.96428 1681 ft 2 kts 248°
2026-05-08 16:40 40.94971 -75.96442 1679 ft 2 kts 248°
2026-05-08 16:40 40.94968 -75.96451 1675 ft 0 kts 247°
2026-05-08 16:58 40.94968 -75.96452 1697 ft 1 kts 250°
2026-05-08 16:58 40.95000 -75.96539 1738 ft 33 kts 285°
2026-05-08 16:58 40.95156 -75.96958 1915 ft 69 kts 299°
2026-05-08 16:59 40.95688 -75.96992 1968 ft 96 kts 27°
2026-05-08 16:59 40.95931 -75.96202 2092 ft 98 kts 86°
2026-05-08 16:59 40.95913 -75.95265 2167 ft 107 kts 94°
2026-05-08 16:59 40.95875 -75.94233 2147 ft 115 kts 93°
2026-05-08 17:00 40.95860 -75.93143 2152 ft 122 kts 95°
2026-05-08 17:00 40.95787 -75.91986 2177 ft 128 kts 102°
2026-05-08 17:00 40.95635 -75.90831 2227 ft 129 kts 103°
2026-05-08 17:00 40.95449 -75.89666 2263 ft 129 kts 105°
2026-05-08 17:01 40.95245 -75.88509 2314 ft 131 kts 104°
2026-05-08 17:01 40.95027 -75.87324 2230 ft 134 kts 105°
2026-05-08 17:01 40.94782 -75.86201 2294 ft 125 kts 106°
2026-05-08 17:01 40.94536 -75.85065 2223 ft 130 kts 107°
2026-05-08 17:02 40.94301 -75.83903 2131 ft 133 kts 104°
2026-05-08 17:02 40.94079 -75.82715 1968 ft 135 kts 108°
2026-05-08 17:02 40.93730 -75.81603 1807 ft 119 kts 107°
2026-05-08 17:02 40.93884 -75.80644 1591 ft 98 kts 41°
2026-05-08 17:03 40.94213 -75.80058 1514 ft 80 kts 115°
2026-05-08 17:03 40.93848 -75.79996 1422 ft 55 kts 243°
2026-05-08 17:03 40.93725 -75.80358 1397 ft 29 kts 248°
2026-05-08 17:03 40.93647 -75.80569 1392 ft 28 kts 249°
2026-05-08 17:04 40.93620 -75.80765 1351 ft 17 kts 258°
2026-05-08 17:04 40.93628 -75.80914 1342 ft 13 kts 258°
2026-05-08 17:04 40.93625 -75.81024 1319 ft 8 kts 259°
2026-05-08 17:04 40.93641 -75.81104 1310 ft 9 kts 259°
2026-05-08 17:05 40.93664 -75.81170 1294 ft 9 kts 259°
2026-05-08 17:05 40.93670 -75.81265 1256 ft 7 kts 258°
2026-05-08 17:05 40.93666 -75.81281 1221 ft 4 kts 259°
2026-05-08 17:05 40.93664 -75.81288 1208 ft 2 kts 266°
2026-05-08 17:06 40.93664 -75.81294 1206 ft 0 kts 266°
2026-05-08 17:07 40.93666 -75.81295 1213 ft 2 kts 261°
2026-05-08 17:08 40.93665 -75.81298 1227 ft 2 kts 173°
2026-05-08 17:08 40.93669 -75.81264 1242 ft 6 kts 86°
2026-05-08 17:08 40.93691 -75.81226 1222 ft 5 kts 124°
2026-05-08 17:08 40.93680 -75.81208 1213 ft 3 kts 159°
2026-05-08 17:09 40.93667 -75.81201 1208 ft 0 kts 164°
2026-05-08 17:15 40.93663 -75.81202 1224 ft 1 kts 154°
2026-05-08 17:15 40.93598 -75.81207 1287 ft 27 kts 216°
2026-05-08 17:16 40.93653 -75.81626 1475 ft 70 kts 289°
2026-05-08 17:16 40.94054 -75.82160 1587 ft 101 kts 327°
2026-05-08 17:16 40.94762 -75.82147 1786 ft 105 kts 18°
2026-05-08 17:16 40.95285 -75.81464 1993 ft 115 kts 57°
2026-05-08 17:17 40.95361 -75.80445 2177 ft 110 kts 109°
2026-05-08 17:17 40.94918 -75.79647 2365 ft 108 kts 160°
2026-05-08 17:17 40.94282 -75.79439 2441 ft 85 kts 203°
2026-05-08 17:17 40.93712 -75.79630 2465 ft 86 kts 211°
2026-05-08 17:18 40.93145 -75.79795 2475 ft 86 kts 201°
2026-05-08 17:18 40.92526 -75.79847 2489 ft 90 kts 197°
2026-05-08 17:18 40.91891 -75.79772 2484 ft 95 kts 188°
2026-05-08 17:18 40.91232 -75.79620 2490 ft 97 kts 187°
2026-05-08 17:19 40.90576 -75.79421 2483 ft 97 kts 185°
2026-05-08 17:19 40.89930 -75.79207 2486 ft 97 kts 181°
2026-05-08 17:19 40.89273 -75.78982 2485 ft 96 kts 181°
2026-05-08 17:19 40.88636 -75.78766 2483 ft 96 kts 180°
2026-05-08 17:20 40.87993 -75.78554 2487 ft 95 kts 181°
2026-05-08 17:20 40.87356 -75.78342 2497 ft 95 kts 181°
2026-05-08 17:20 40.86723 -75.78124 2499 ft 93 kts 180°
2026-05-08 17:20 40.86093 -75.77906 2493 ft 96 kts 180°
2026-05-08 17:21 40.85447 -75.77687 2491 ft 96 kts 179°
2026-05-08 17:21 40.84812 -75.77466 2499 ft 93 kts 178°
2026-05-08 17:21 40.84175 -75.77248 2482 ft 96 kts 182°
2026-05-08 17:21 40.83526 -75.77038 2497 ft 97 kts 181°
2026-05-08 17:22 40.82842 -75.76815 2500 ft 104 kts 179°
2026-05-08 17:22 40.82112 -75.76567 2500 ft 108 kts 175°
2026-05-08 17:22 40.81388 -75.76299 2490 ft 111 kts 175°
2026-05-08 17:22 40.80630 -75.76028 2492 ft 113 kts 178°
2026-05-08 17:23 40.79872 -75.75762 2496 ft 112 kts 178°
2026-05-08 17:23 40.79116 -75.75501 2496 ft 111 kts 179°
2026-05-08 17:23 40.78383 -75.75247 2490 ft 108 kts 179°
2026-05-08 17:23 40.77642 -75.75007 2495 ft 111 kts 179°
2026-05-08 17:24 40.76899 -75.74761 2497 ft 109 kts 179°
2026-05-08 17:24 40.76153 -75.74514 2495 ft 112 kts 176°
2026-05-08 17:24 40.75399 -75.74260 2502 ft 111 kts 177°
2026-05-08 17:24 40.74672 -75.74001 2497 ft 107 kts 176°
2026-05-08 17:25 40.73956 -75.73755 2487 ft 108 kts 178°
2026-05-08 17:25 40.73232 -75.73515 2490 ft 107 kts 180°
2026-05-08 17:25 40.72496 -75.73279 2489 ft 112 kts 179°
2026-05-08 17:25 40.71733 -75.73030 2496 ft 112 kts 179°
2026-05-08 17:26 40.70991 -75.72771 2494 ft 109 kts 176°
2026-05-08 17:26 40.70244 -75.72519 2498 ft 110 kts 176°
2026-05-08 17:26 40.69519 -75.72269 2498 ft 107 kts 179°
2026-05-08 17:26 40.68792 -75.72020 2500 ft 108 kts 178°
2026-05-08 17:27 40.68069 -75.71771 2500 ft 107 kts 177°
2026-05-08 17:27 40.67347 -75.71529 2498 ft 111 kts 179°
2026-05-08 17:27 40.66593 -75.71282 2486 ft 111 kts 179°
2026-05-08 17:27 40.65829 -75.71036 2497 ft 113 kts 178°
2026-05-08 17:28 40.65076 -75.70780 2506 ft 109 kts 176°
2026-05-08 17:28 40.64346 -75.70523 2500 ft 111 kts 176°
2026-05-08 17:28 40.63602 -75.70268 2503 ft 108 kts 175°
2026-05-08 17:28 40.63110 -75.70095 2493 ft 110 kts 177°
2026-05-08 17:29 40.62359 -75.69847 2505 ft 112 kts 176°
2026-05-08 17:29 40.61611 -75.69585 2493 ft 111 kts 178°
2026-05-08 17:29 40.60857 -75.69333 2500 ft 111 kts 177°
2026-05-08 17:29 40.60107 -75.69078 2505 ft 111 kts 178°
2026-05-08 17:30 40.59355 -75.68821 2501 ft 112 kts 178°
2026-05-08 17:30 40.58606 -75.68565 2498 ft 111 kts 177°
2026-05-08 17:30 40.57858 -75.68310 2500 ft 111 kts 176°
2026-05-08 17:30 40.57121 -75.68053 2500 ft 112 kts 176°
2026-05-08 17:31 40.56347 -75.67790 2500 ft 116 kts 175°
2026-05-08 17:31 40.55575 -75.67523 2505 ft 114 kts 174°
2026-05-08 17:31 40.54813 -75.67254 2509 ft 114 kts 175°
2026-05-08 17:31 40.54057 -75.66990 2503 ft 111 kts 176°
2026-05-08 17:32 40.53307 -75.66728 2501 ft 112 kts 177°
2026-05-08 17:32 40.52549 -75.66467 2498 ft 112 kts 178°
2026-05-08 17:32 40.51793 -75.66207 2496 ft 112 kts 178°
2026-05-08 17:32 40.51040 -75.65947 2502 ft 111 kts 174°
2026-05-08 17:33 40.50288 -75.65685 2507 ft 112 kts 175°
2026-05-08 17:33 40.49539 -75.65425 2503 ft 112 kts 175°
2026-05-08 17:33 40.48786 -75.65166 2501 ft 112 kts 179°
2026-05-08 17:33 40.48031 -75.64910 2504 ft 114 kts 178°
2026-05-08 17:34 40.47247 -75.64653 2499 ft 118 kts 177°
2026-05-08 17:34 40.46460 -75.64384 2504 ft 116 kts 175°
2026-05-08 17:34 40.45694 -75.64110 2519 ft 112 kts 176°
2026-05-08 17:34 40.44947 -75.63846 2526 ft 111 kts 178°
2026-05-08 17:35 40.44205 -75.63582 2526 ft 110 kts 178°
2026-05-08 17:35 40.43464 -75.63326 2532 ft 111 kts 176°
2026-05-08 17:35 40.42694 -75.63071 2535 ft 116 kts 177°
2026-05-08 17:35 40.41918 -75.62807 2535 ft 115 kts 179°
2026-05-08 17:36 40.41131 -75.62540 2538 ft 116 kts 178°
2026-05-08 17:36 40.40376 -75.62269 2536 ft 110 kts 180°
2026-05-08 17:36 40.39634 -75.62009 2536 ft 111 kts 177°
2026-05-08 17:36 40.38886 -75.61751 2535 ft 111 kts 178°
2026-05-08 17:37 40.38138 -75.61499 2539 ft 113 kts 176°
2026-05-08 17:37 40.37376 -75.61236 2538 ft 114 kts 176°
2026-05-08 17:37 40.36625 -75.60971 2527 ft 111 kts 180°
2026-05-08 17:37 40.35868 -75.60719 2537 ft 112 kts 178°
2026-05-08 17:38 40.35111 -75.60463 2537 ft 112 kts 178°
2026-05-08 17:38 40.34360 -75.60204 2540 ft 111 kts 177°
2026-05-08 17:38 40.33625 -75.59943 2534 ft 109 kts 177°
2026-05-08 17:38 40.32885 -75.59688 2535 ft 110 kts 178°
2026-05-08 17:39 40.32154 -75.59430 2531 ft 110 kts 177°
2026-05-08 17:39 40.31397 -75.59178 2533 ft 113 kts 177°
2026-05-08 17:39 40.30647 -75.58922 2531 ft 112 kts 178°
2026-05-08 17:39 40.29888 -75.58664 2541 ft 110 kts 176°
2026-05-08 17:40 40.29165 -75.58403 2536 ft 108 kts 178°
2026-05-08 17:40 40.28437 -75.58149 2528 ft 108 kts 179°
2026-05-08 17:40 40.27711 -75.57903 2524 ft 110 kts 179°
2026-05-08 17:40 40.26960 -75.57653 2517 ft 113 kts 179°
2026-05-08 17:41 40.26204 -75.57399 2519 ft 111 kts 178°
2026-05-08 17:41 40.25453 -75.57139 2521 ft 112 kts 177°
2026-05-08 17:41 40.24707 -75.56875 2515 ft 111 kts 176°
2026-05-08 17:41 40.23958 -75.56613 2514 ft 111 kts 178°
2026-05-08 17:42 40.23206 -75.56355 2519 ft 111 kts 178°
2026-05-08 17:42 40.22454 -75.56087 2512 ft 114 kts 174°
2026-05-08 17:42 40.21749 -75.55535 2508 ft 121 kts 155°
2026-05-08 17:42 40.21083 -75.54848 2523 ft 123 kts 152°
2026-05-08 17:43 40.20433 -75.54131 2526 ft 120 kts 150°
2026-05-08 17:43 40.19789 -75.53419 2524 ft 121 kts 149°
2026-05-08 17:43 40.19151 -75.52716 2518 ft 120 kts 151°
2026-05-08 17:43 40.18504 -75.52013 2428 ft 122 kts 151°
2026-05-08 17:44 40.17860 -75.51304 2307 ft 120 kts 150°
2026-05-08 17:44 40.17218 -75.50599 2181 ft 119 kts 150°
2026-05-08 17:44 40.16581 -75.49905 2042 ft 121 kts 151°
2026-05-08 17:44 40.15921 -75.49205 1915 ft 122 kts 150°
2026-05-08 17:45 40.15267 -75.48508 1793 ft 121 kts 150°
2026-05-08 17:45 40.14625 -75.47815 1640 ft 119 kts 150°
2026-05-08 17:45 40.13970 -75.47120 1541 ft 123 kts 153°
2026-05-08 17:45 40.13311 -75.46420 1498 ft 122 kts 154°
2026-05-08 17:46 40.12652 -75.45720 1488 ft 121 kts 154°
2026-05-08 17:46 40.11996 -75.45022 1475 ft 123 kts 152°
2026-05-08 17:46 40.11338 -75.44324 1471 ft 120 kts 151°
2026-05-08 17:46 40.10702 -75.43649 1466 ft 117 kts 153°
2026-05-08 17:47 40.10067 -75.42983 1467 ft 117 kts 153°
2026-05-08 17:47 40.09432 -75.42319 1465 ft 120 kts 151°
2026-05-08 17:47 40.08777 -75.41626 1472 ft 118 kts 151°
2026-05-08 17:47 40.08364 -75.41177 1469 ft 116 kts 154°
2026-05-08 17:48 40.07519 -75.40273 1474 ft 121 kts 151°
2026-05-08 17:48 40.06862 -75.39576 1473 ft 122 kts 151°
2026-05-08 17:48 40.06213 -75.38879 1479 ft 121 kts 152°
2026-05-08 17:48 40.05561 -75.38179 1481 ft 119 kts 153°
2026-05-08 17:49 40.04908 -75.37486 1478 ft 123 kts 151°
2026-05-08 17:49 40.04255 -75.36791 1483 ft 118 kts 148°
2026-05-08 17:49 40.03630 -75.36114 1473 ft 117 kts 150°
2026-05-08 17:49 40.03003 -75.35448 1473 ft 118 kts 154°
2026-05-08 17:50 40.02374 -75.34742 1471 ft 120 kts 146°
2026-05-08 17:50 40.01797 -75.33934 1471 ft 123 kts 143°
2026-05-08 17:50 40.01241 -75.33099 1471 ft 120 kts 142°
2026-05-08 17:50 40.00692 -75.32265 1467 ft 122 kts 141°
2026-05-08 17:51 40.00147 -75.31438 1464 ft 120 kts 141°
2026-05-08 17:51 39.99601 -75.30622 1465 ft 122 kts 140°
2026-05-08 17:51 39.99042 -75.29784 1475 ft 118 kts 139°
2026-05-08 17:51 39.98511 -75.28970 1444 ft 117 kts 138°
2026-05-08 17:52 39.97976 -75.28165 1415 ft 118 kts 139°
2026-05-08 17:52 39.97442 -75.27349 1392 ft 118 kts 139°
2026-05-08 17:52 39.96991 -75.25338 1326 ft 132 kts 78°
2026-05-08 17:53 39.97149 -75.24120 1227 ft 138 kts 78°
2026-05-08 17:53 39.97364 -75.22914 1108 ft 135 kts 76°
2026-05-08 17:53 39.97577 -75.21763 1059 ft 126 kts 77°
2026-05-08 17:53 39.97705 -75.20668 1036 ft 122 kts 89°
2026-05-08 17:54 39.97530 -75.19656 1029 ft 109 kts 127°
2026-05-08 17:54 39.97135 -75.18858 1029 ft 98 kts 143°
2026-05-08 17:54 39.96714 -75.18274 1022 ft 81 kts 160°
2026-05-08 17:54 39.96270 -75.17873 1019 ft 75 kts 172°
2026-05-08 17:55 39.95824 -75.17655 1019 ft 63 kts 190°